Regional Weather Roundup
Issued by NWS Dallas/Fort Worth, TX

Home | Current Version | Previous Version | Text Only | Print | Product List | Glossary On
Versions: 1 2 3 4 5 6 7 8 9 10 11 12 13 14 15 16 17 18 19 20 21 22 23 24 25 26 27 28 29 30 31 32 33 34 35 36 37 38 39 40 41 42 43 44 45 46 47 48 49 50
000
ASUS44 KFWD 232215
RWRFWD
NORTH TEXAS HOURLY WEATHER ROUNDUP
NATIONAL WEATHER SERVICE FORT WORTH TX
400 PM CST WED JAN 23 2019

NOTE: "FAIR" INDICATES FEW OR NO CLOUDS BELOW 12,000 FEET WITH NO
SIGNIFICANT WEATHER AND/OR OBSTRUCTIONS TO VISIBILITY.

TXZ118-119-232300-
DALLAS/FORT WORTH METROPLEX

CITY           SKY/WX    TMP DP  RH WIND       PRES   REMARKS
DFW AIRPORT    FAIR      48  20  32 NW15      30.06S
DALLAS LOVE    FAIR      49  23  36 NW14      30.08F
FTW MEACHAM    FAIR      47  20  34 NW17G24   30.09S
DAL-EXECUTIVE  FAIR      47  19  33 NW17      30.06F
FTW-ALLIANCE   FAIR      49  19  30 NW15      30.08S
FTW-NAS-JRB    FAIR      50  18  28 NW13      30.10S
FTW-SPINKS     SUNNY     50  19  29 NW12G21   30.10F
ARLINGTON      FAIR      50  21  32 NW20      30.08S
GRAND PRAIRIE  SUNNY     48  18  29 N9G21     30.10S
ADDISON        SUNNY     46  19  34 NW14      30.08F
MESQUITE       SUNNY     46  18  31 NW10G22   30.09F
LANCASTER      FAIR      47  19  33 N12G21    30.09F
$$

TXZ091>094-102>105-117-120-121-131>134-232300-
NORTH CENTRAL TEXAS

CITY           SKY/WX    TMP DP  RH WIND       PRES   REMARKS
SHRMAN/DENISON SUNNY     45  19  36 NW13      30.08S WCI  38
GAINESVILLE    FAIR      45  19  35 NW10G21   30.09S WCI  39
BOWIE          FAIR      46  22  38 NW13      30.07F WCI  40
BRIDGEPORT     FAIR      47  20  34 MISG      30.11S
DECATUR        FAIR      46  19  33 NW6G17    30.07F
DENTON         FAIR      48  21  34 NW14      30.08S
MCKINNEY       FAIR      46  21  37 N14G20    30.07F WCI  40
BONHAM         FAIR      40  21  45 NW8       30.07F WCI  35
GREENVILLE     FAIR      45  27  49 NW7       30.08F
ROCKWALL       FAIR      47  25  40 NW15      30.08F
TERRELL        FAIR      45  20  36 N8        30.09F
WAXAHACHIE     FAIR      48  22  35 NW12G21   30.09F
GRANBURY       FAIR      51  20  28 NW13      30.11S
$$

TXZ083>090-098>101-113>116-127>130-139>142-154-155-232300-
WESTERN NORTH TEXAS

CITY           SKY/WX    TMP DP  RH WIND       PRES   REMARKS
WICHITA FALLS  FAIR      47  19  33 W10       30.08F
WF-KICKAPOO    FAIR      47  17  30 NW7       30.11F
VERNON         FAIR      52  14  22 W7        30.07F
ABILENE        FAIR      51  16  24 W10       30.09F
ABILENE-DYESS  SUNNY     51  13  22 W7        30.09
GRAHAM         FAIR      48  20  32 W13       30.08F
BRECKENRIDGE   FAIR      51  16  25 NW9       30.10F
CISCO          FAIR      48  14  25 NW13      30.09F
EASTLAND       FAIR      48  15  27 NW9       30.10S
RANGER         FAIR      48  17  29 NW10G17   30.10S
MINERAL WELLS  FAIR      50  17  27 NW14      30.08S
STEPHENVILLE   FAIR      50  15  24 NW13      30.12S
COMANCHE       FAIR      51  18  27 NW13      30.11S
BROWNWOOD      FAIR      50  14  23 NW14      30.11F
COLEMAN        FAIR      52  15  23 NW7       30.10F
BRADY          FAIR      50  16  25 NW9G15    30.12S
$$

TXZ143>147-156>162-174-175-232300-
CENTRAL TEXAS

CITY           SKY/WX    TMP DP  RH WIND       PRES   REMARKS
WACO           FAIR      52  19  27 N13       30.10F
WACO-TSTC      SUNNY     50  18  27 NW12G23   30.10F
WACO-MCGREGOR  FAIR      52  19  27 N15       30.11S
CORSICANA      FAIR      45  24  43 NW13      30.10F WCI  39
MEXIA          FAIR      45  23  42 N9G18     30.09F WCI  40
HEARNE         FAIR      47  29  50 NW10      30.13F
CAMERON        FAIR      51  24  35 N7        30.11F
TEMPLE         FAIR      52  19  27 NW17      30.11S
KILLEEN        FAIR      52  15  22 N14       30.09F
KILLEEN-SKYLRK FAIR      53  18  25 NW10      30.11F
FORT HOOD      FAIR      53  16  23 NW15      30.06F
GATESVILLE     FAIR      52  16  24 NW9G20    30.12S
HAMILTON       FAIR      51  18  26 NW15      30.11S
LAMPASAS       FAIR      52  18  26 NW8       30.09F
$$

TXZ095>097-106>112-122>126-135>138-148>153-164>167-232300-
EAST TEXAS

CITY           SKY/WX    TMP DP  RH WIND       PRES   REMARKS
PARIS          FAIR      40  25  55 W14       30.07R WCI  32
SULPHUR SPRNGS FAIR      41  27  57 W12G21    30.09S WCI  34
MOUNT PLEASANT FAIR      40  26  56 NW16      30.07F WCI  32
GILMER         FAIR      40  26  57 NW9       30.06S WCI  34
MINEOLA          N/A    N/A N/A N/A MISG        N/A
TYLER          FAIR      42  24  49 NW15      30.06F WCI  34
LONGVIEW       FAIR      41  28  60 NW18      30.03F WCI  32
MARSHALL       FAIR      39  26  59 NW9G17    30.06S WCI  32
ATHENS         FAIR      43  25  49 NW8       30.07F WCI  38
PALESTINE      FAIR      43  26  51 W12G21    30.10F WCI  37
JACKSONVILLE   FAIR      41  27  57 W13G18    30.07S WCI  34
HENDERSON      FAIR      41  26  56 MISG      30.06F
CENTER         FAIR      40  26  56 W9G20     30.05  WCI  34
NACOGDOCHES    FAIR      41  27  57 NW17G24   30.05F WCI  32
LUFKIN         FAIR      42  27  55 NW14G21   30.04F WCI  35
$$

SUPPLEMENTAL OBSERVATIONS (NWS FORT WORTH AREA)

CITY           SKY/WX    TMP DP  RH WIND       PRES   REMARKS
DENISON DAM      N/A     43  21  42 NW17        N/A  WCI  35
CADDO GRASSLND   N/A     45  25  45 NW6G15      N/A
LBJ GRASSLAND    N/A     48  19  32 NW9G18      N/A
GRANBURY         N/A     52  21  30 NW13        N/A
COMANCHE         N/A     52  18  25 NW13G21     N/A
MCGREGOR         N/A     52  18  25 N10G23      N/A
TEMPLE           N/A     54  19  26 NW17G25     N/A
LAKE LIMESTONE   N/A     46  23  39 NW10        N/A
PALESTINE        N/A     43  25  49 NW8G18      N/A  WCI  38
$$

SUPPLEMENTAL OBSERVATIONS (NWS NORMAN AREA)

CITY           SKY/WX    TMP DP  RH WIND       PRES   REMARKS
MILLERS CREEK    N/A     52  18  25 W7          N/A
$$

SUPPLEMENTAL OBSERVATIONS (NWS SAN ANGELO AREA)

CITY           SKY/WX    TMP DP  RH WIND       PRES   REMARKS
IVIE RESERVOIR   N/A     54  19  26 W10         N/A
COLORADO BEND    N/A     52  16  24 NW9G17      N/A
$$

SUPPLEMENTAL OBSERVATIONS (NWS SHREVEPORT AREA)

CITY           SKY/WX    TMP DP  RH WIND       PRES   REMARKS
TEXARKANA        N/A     41  27  56 W9G20       N/A  WCI  35
LINDEN           N/A     39  25  56 NW9G20      N/A  WCI  33
CADDO LAKE       N/A     41  27  56 NW5G14      N/A  WCI  38
LUFKIN           N/A     45  28  53 MISG        N/A
N SABINE NF      N/A     43  28  56 MISG        N/A
$$

SUPPLEMENTAL OBSERVATIONS ARE A COLLECTION OF AUTOMATED INSTRUMENTS
THAT ARE MAINTAINED BY A VARIETY OF FEDERAL AND STATE AGENCIES.
CERTAIN ELEMENTS...SUCH AS HUMIDITY VALUES AND SUSTAINED WIND
SPEEDS...MAY BE APPROXIMATED.




USA.gov is the U.S. government's official web portal to all federal, state and local government web resources and services.